[[{"header":{"parameterUnit":"m.s-1","parameterCategory":1,"la1":30.2991,"la2":30.254,"lo1":-89.0895,"lo2":-89.0444,"dy":0.0017,"dx":0.0017,"nx":28,"ny":28,"refTime":"2025-03-23T09:00:00:Z","depth":0,"parameterNumber":2,"parameterNumberName":"U-component_of_WINDS"},"data":[0,0,0,0,0,0,0,0,0,0,0,0,0,0,0,0,0,0,0,0,0,0,0,0,0,0,0,0,0,0,0,0,0,0,0,0,0,0,0,0,0,0,0,0,0,0,0,0,0,0,0,0,0,0,0,0,0,0,-0.7002,-0.7001,0,-0.6957,-0.6956,-0.6956,-0.6945,-0.6946,-0.6946,-0.6946,-0.6897,-0.6896,-0.6894,0,0,0,0,0,0,0,0,0,0,0,0,0,-0.7077,-0.7076,-0.7002,-0.7001,-0.7001,-0.6957,-0.6956,-0.6955,-0.6945,-0.6946,-0.6946,-0.6947,-0.6898,-0.6896,-0.6894,0,0,0,0,0,0,0,0,0,0,0,0,0,-0.7039,-0.7076,-0.7002,-0.699,-0.6989,-0.6957,-0.6956,-0.6955,-0.6945,-0.6946,-0.6946,-0.6947,-0.6898,-0.6896,-0.6894,-0.6869,0,0,-0.6886,-0.6885,0,0,0,0,0,0,0,0,-0.7042,-0.7037,-0.6993,-0.6991,-0.699,-0.6957,-0.6965,-0.6926,-0.6945,-0.6962,-0.6946,-0.6947,-0.6917,-0.6913,-0.6903,-0.6867,-0.6864,-0.6886,-0.6885,-0.6884,-0.6883,0,0,0,0,0,0,0,-0.7044,-0.7039,-0.6984,-0.6992,-0.699,-0.6987,-0.6982,-0.6957,-0.6937,-0.696,-0.696,-0.6954,-0.6916,-0.6905,-0.6902,-0.6864,-0.6886,-0.6884,-0.6882,-0.6882,-0.6805,-0.6804,0,0,0,0,0,0,-0.7049,-0.7041,-0.6985,-0.6983,-0.7017,-0.6985,-0.698,-0.6967,-0.6937,-0.6933,-0.6954,-0.6954,-0.6909,-0.6905,-0.69,-0.6869,-0.6884,-0.6881,-0.688,-0.6805,-0.6805,-0.6804,0,0,0,0,0,0,-0.7051,-0.7044,-0.6987,-0.7011,-0.7004,-0.6983,-0.6969,-0.6966,-0.6956,-0.6932,-0.6929,-0.6947,-0.691,-0.6903,-0.6877,-0.6867,-0.688,-0.6878,-0.6806,-0.6805,-0.6804,-0.6808,0,0,0,0,0,0,-0.7053,-0.7045,-0.7036,-0.7011,-0.7003,-0.6966,-0.6969,-0.6965,-0.6952,-0.6951,-0.6925,-0.6921,-0.6909,-0.6881,-0.6875,-0.6864,-0.6876,-0.6807,-0.6806,-0.6805,-0.6808,-0.6807,-0.6806,0,0,0,0,0,-0.7056,-0.7038,-0.7036,-0.7029,-0.6991,-0.6965,-0.696,-0.6948,-0.6951,-0.6941,-0.6927,-0.6922,-0.687,-0.6878,-0.6871,-0.686,-0.6807,-0.6806,-0.6805,-0.6809,-0.6807,-0.6806,0,0,0,0,0,0,-0.7061,-0.7035,-0.7032,-0.7005,-0.6988,-0.6963,-0.6951,-0.6946,-0.6926,-0.6927,-0.6911,-0.6906,-0.688,-0.6867,-0.6877,-0.6835,-0.6839,-0.6836,-0.6844,-0.6842,-0.6841,-0.6845,-0.6874,0,0,0,0,0,-0.7059,-0.7041,-0.7019,-0.6998,-0.6989,-0.6972,-0.696,-0.6952,-0.6932,-0.6925,-0.6908,-0.6889,-0.6868,-0.6854,-0.6834,-0.6806,-0.68,-0.6795,-0.6794,-0.6793,-0.6791,-0.6776,-0.6773,-0.68,-0.68,-0.68,0,0,-0.7055,-0.7039,-0.7028,-0.6998,-0.6984,-0.6965,-0.6965,-0.6945,-0.693,-0.6921,-0.6896,-0.6883,-0.686,-0.6833,-0.682,-0.6822,-0.6782,-0.6792,-0.6791,-0.6789,-0.6774,-0.6772,-0.6769,-0.6799,-0.6799,-0.6799,0,0,-0.7038,-0.7024,-0.7005,-0.699,-0.6969,-0.6957,-0.6953,-0.6929,-0.692,-0.6895,-0.6887,-0.687,-0.6834,-0.6818,-0.6806,-0.6783,-0.6778,-0.6777,-0.677,-0.6756,-0.6754,-0.6752,-0.6744,-0.6741,-0.6775,-0.6775,-0.6775,0,-0.7036,-0.7007,-0.6996,-0.6976,-0.6963,-0.6955,-0.6935,-0.6921,-0.6894,-0.6885,-0.6887,-0.6842,-0.6826,-0.6796,-0.6791,-0.6781,-0.6775,-0.678,-0.6755,-0.6753,-0.6751,-0.6743,-0.674,-0.6775,-0.6775,-0.6775,-0.6775,0,-0.7005,-0.6986,-0.6973,-0.6948,-0.6933,-0.6914,-0.6898,-0.6885,-0.6878,-0.6867,-0.684,-0.6821,-0.6797,-0.6789,-0.6782,-0.6757,-0.6759,-0.6758,-0.6762,-0.6749,-0.6741,-0.6738,-0.6775,-0.6775,-0.6775,-0.6775,0,0,-0.699,-0.6959,-0.6954,-0.6943,-0.6918,-0.6902,-0.6882,-0.6859,-0.6848,-0.6829,-0.6812,-0.6782,-0.6782,-0.6767,-0.6759,-0.6746,-0.6729,-0.6746,-0.6746,-0.6744,-0.6701,-0.6702,-0.6699,-0.6726,-0.6725,-0.6725,-0.6703,0,-0.697,-0.6935,-0.6924,-0.6894,-0.6876,-0.6868,-0.685,-0.6833,-0.6821,-0.6803,-0.679,-0.677,-0.677,-0.6762,-0.6749,-0.6734,-0.672,-0.6735,-0.6709,-0.6708,-0.6715,-0.6695,-0.6695,-0.6675,-0.67,-0.6699,-0.6699,0,-0.6942,-0.6924,-0.6893,-0.6871,-0.6862,-0.6847,-0.6825,-0.6808,-0.6788,-0.6781,-0.6765,-0.6758,-0.6736,-0.6741,-0.6711,-0.6721,-0.671,-0.6701,-0.67,-0.6696,-0.6703,-0.6691,-0.6669,-0.6666,-0.6694,-0.6695,-0.6695,0,-0.6935,-0.6902,-0.6879,-0.6869,-0.6843,-0.6832,-0.682,-0.6801,-0.6788,-0.6769,-0.676,-0.6738,-0.6726,-0.6709,-0.6696,-0.6701,-0.6667,-0.6671,-0.6659,-0.666,-0.6652,-0.6653,-0.6628,-0.6645,-0.6645,-0.6645,-0.6645,0,-0.6914,-0.6895,-0.6875,-0.6861,-0.684,-0.6827,-0.6805,-0.6793,-0.6776,-0.6759,-0.6751,-0.6735,-0.6718,-0.6699,-0.6689,-0.6665,-0.666,-0.6653,-0.665,-0.6653,-0.6654,-0.6645,-0.6646,-0.6644,-0.6645,-0.6645,-0.6645,0,-0.6902,-0.6888,-0.6862,-0.6839,-0.6833,-0.6818,-0.6799,-0.6784,-0.6773,-0.6751,-0.6745,-0.6726,-0.6705,-0.669,-0.6661,-0.6654,-0.6628,-0.6626,-0.6635,-0.6634,-0.6624,-0.6625,-0.6592,-0.6587,-0.6608,-0.6608,-0.6607,0,-0.6889,-0.6875,-0.685,-0.6839,-0.6827,-0.6808,-0.6795,-0.6782,-0.6768,-0.6745,-0.6733,-0.6711,-0.6692,-0.6658,-0.6641,-0.6619,-0.6616,-0.6606,-0.6613,-0.6617,-0.6616,-0.6617,-0.6615,-0.6605,-0.6605,-0.6605,-0.6605,0,-0.6869,-0.6863,-0.6844,-0.6824,-0.6808,-0.6791,-0.6774,-0.6765,-0.6748,-0.6733,-0.6711,-0.6697,-0.6668,-0.6646,-0.6623,-0.661,-0.6605,-0.6603,-0.6599,-0.6602,-0.6608,-0.6605,-0.6632,-0.6604,-0.6604,-0.6604,-0.6604,-0.6604,-0.6856,-0.6843,-0.6824,-0.6803,-0.6789,-0.6773,-0.6759,-0.6745,-0.6727,-0.6703,-0.6696,-0.6673,-0.6653,-0.6622,-0.6609,-0.659,-0.6591,-0.6585,-0.6584,-0.6583,-0.6583,-0.6612,-0.6586,-0.6586,-0.6586,-0.6586,-0.6586,0,-0.6835,-0.6823,-0.6804,-0.6781,-0.6765,-0.6761,-0.6742,-0.6729,-0.6709,-0.6691,-0.6673,-0.6648,-0.6626,-0.6608,-0.6586,-0.6574,-0.6571,-0.6569,-0.657,-0.6567,-0.6583,-0.6589,-0.6572,-0.6572,-0.6572,-0.6572,-0.6572,-0.6572,-0.6823,-0.68,-0.6791,-0.6761,-0.6748,-0.6726,-0.6715,-0.67,-0.6686,-0.6658,-0.6641,-0.6629,-0.6611,-0.6588,-0.6568,-0.6563,-0.6555,-0.6554,-0.6548,-0.6564,-0.6566,-0.6567,-0.6572,-0.6552,-0.6552,-0.6533,-0.6533,-0.6533]},{"header":{"parameterUnit":"m.s-1","parameterCategory":1,"la1":30.2991,"la2":30.254,"lo1":-89.0895,"lo2":-89.0444,"dy":0.0017,"dx":0.0017,"nx":28,"ny":28,"refTime":"2025-03-23T09:00:00:Z","depth":0,"parameterNumber":3,"parameterNumberName":"V-component_of_WINDS"},"data":[0,0,0,0,0,0,0,0,0,0,0,0,0,0,0,0,0,0,0,0,0,0,0,0,0,0,0,0,0,0,0,0,0,0,0,0,0,0,0,0,0,0,0,0,0,0,0,0,0,0,0,0,0,0,0,0,0,0,2.9832,2.9831,0,2.9771,2.977,2.977,2.9722,2.9722,2.9722,2.9721,2.9654,2.9653,2.9651,0,0,0,0,0,0,0,0,0,0,0,0,0,2.9903,2.9902,2.9832,2.9831,2.983,2.9771,2.977,2.9769,2.9723,2.9722,2.9721,2.9721,2.9654,2.9653,2.9651,0,0,0,0,0,0,0,0,0,0,0,0,0,2.986,2.9902,2.9832,2.98,2.9796,2.9771,2.977,2.9769,2.9723,2.9722,2.9721,2.9721,2.9655,2.9653,2.9651,2.9651,0,0,2.9644,2.9644,0,0,0,0,0,0,0,0,2.9863,2.9858,2.9805,2.9802,2.9798,2.9754,2.9771,2.9729,2.9723,2.9751,2.9721,2.972,2.9687,2.9683,2.9672,2.9648,2.9645,2.9644,2.9643,2.9642,2.9642,0,0,0,0,0,0,0,2.9866,2.986,2.9808,2.9805,2.98,2.9787,2.978,2.9763,2.9723,2.9748,2.9745,2.9738,2.9685,2.9675,2.967,2.9644,2.9644,2.9643,2.9641,2.964,2.9616,2.9616,0,0,0,0,0,0,2.9874,2.9863,2.9809,2.9806,2.983,2.9786,2.9779,2.9769,2.9723,2.9716,2.9739,2.9736,2.9678,2.9673,2.9668,2.9664,2.9642,2.964,2.9639,2.9615,2.9616,2.9616,0,0,0,0,0,0,2.9876,2.987,2.9812,2.9833,2.9825,2.9786,2.9775,2.9768,2.9757,2.9716,2.9709,2.9735,2.9678,2.9671,2.9656,2.9661,2.9639,2.9637,2.9614,2.9615,2.9616,2.9658,0,0,0,0,0,0,2.9878,2.9871,2.9872,2.9834,2.9824,2.9802,2.9775,2.9767,2.9754,2.975,2.9711,2.9704,2.9677,2.9659,2.9654,2.9658,2.9636,2.9614,2.9615,2.9616,2.9656,2.966,2.9664,0,0,0,0,0,2.9881,2.9885,2.9872,2.9866,2.9824,2.9803,2.9797,2.9767,2.9755,2.9754,2.9728,2.9705,2.9662,2.9658,2.9651,2.9655,2.9613,2.9614,2.9616,2.9654,2.9659,2.9664,0,0,0,0,0,0,2.9922,2.9879,2.9864,2.9856,2.9834,2.9795,2.9793,2.9773,2.9752,2.9749,2.9711,2.9703,2.9692,2.9672,2.9668,2.9653,2.9635,2.9635,2.9666,2.9671,2.9675,2.9679,2.9634,0,0,0,0,0,2.9931,2.9919,2.9881,2.9877,2.9867,2.9833,2.9822,2.9801,2.9775,2.9765,2.9738,2.9712,2.9693,2.9681,2.9661,2.9653,2.9643,2.9653,2.9657,2.966,2.966,2.9654,2.9657,2.9621,2.9621,2.9621,0,0,2.9948,2.9923,2.9917,2.9885,2.9865,2.9852,2.9825,2.9812,2.9801,2.9762,2.9747,2.9726,2.9695,2.9684,2.9677,2.9667,2.9669,2.9662,2.9665,2.9663,2.9656,2.9659,2.9662,2.9622,2.9622,2.9621,0,0,2.9972,2.9952,2.9947,2.9928,2.9899,2.9876,2.9875,2.9839,2.9824,2.9808,2.9779,2.9765,2.9733,2.9712,2.9697,2.9714,2.9691,2.9708,2.9728,2.9723,2.9726,2.9728,2.9733,2.9735,2.9709,2.9709,2.9709,0,2.9996,2.9976,2.9946,2.9935,2.9921,2.9888,2.9882,2.9864,2.9829,2.982,2.981,2.9769,2.9745,2.9728,2.9733,2.9722,2.9718,2.9712,2.9728,2.973,2.9732,2.9736,2.9738,2.9711,2.9711,2.9711,2.971,0,3.0006,2.9993,2.9992,2.9961,2.9948,2.9939,2.9907,2.9896,2.9877,2.9854,2.9838,2.981,2.9783,2.9778,2.9758,2.9758,2.9752,2.9736,2.9716,2.9738,2.9741,2.9743,2.9714,2.9713,2.9713,2.9712,0,0,3.0053,3.0007,3.0007,2.9992,2.9958,2.9946,2.9936,2.9912,2.9903,2.988,2.9869,2.9843,2.9828,2.9811,2.9789,2.9784,2.9798,2.9768,2.9766,2.9773,2.9795,2.9807,2.981,2.9784,2.9784,2.9784,2.9797,0,3.007,3.0051,3.0025,3.0014,3.0,2.9969,2.996,2.9937,2.9916,2.9901,2.9877,2.9859,2.984,2.983,2.9824,2.9798,2.9802,2.9796,2.9771,2.9771,2.9779,2.9811,2.9824,2.9838,2.9798,2.9799,2.9799,0,3.0088,3.0069,3.0057,3.0024,3.0017,3.001,2.9985,2.9972,2.9945,2.993,2.9912,2.9888,2.9874,2.9858,2.9837,2.9834,2.9822,2.9808,2.9807,2.9803,2.9785,2.9807,2.9842,2.9843,2.9801,2.98,2.98,0,3.0122,3.0093,3.0082,3.0071,3.0033,3.0028,3.0011,2.9984,2.9971,2.9949,2.994,2.9917,2.9903,2.9885,2.9855,2.9846,2.9837,2.9818,2.9823,2.9823,2.9821,2.9821,2.9854,2.9815,2.9815,2.9815,2.9815,0,3.0144,3.0138,3.0097,3.0091,3.0082,3.0051,3.0044,3.0024,3.0,2.9988,2.9959,2.9948,2.9909,2.9893,2.9869,2.9855,2.9849,2.9836,2.9829,2.9838,2.984,2.9829,2.9827,2.9816,2.9816,2.9816,2.9816,0,3.018,3.0153,3.0139,3.0105,3.0096,3.0091,3.006,3.0052,3.003,3.0015,3.0009,2.9974,2.9954,2.9922,2.9892,2.9876,2.9865,2.9855,2.9875,2.9871,2.9877,2.9876,2.9902,2.9904,2.9866,2.9866,2.9867,0,3.0195,3.019,3.0155,3.0146,3.0131,3.0116,3.0103,3.0072,3.006,3.0029,3.0024,3.0002,2.9982,2.9951,2.9921,2.9898,2.9887,2.9897,2.9883,2.9891,2.9886,2.9886,2.9885,2.99,2.9901,2.9901,2.9902,0,3.0225,3.0212,3.0195,3.0175,3.0161,3.0142,3.0122,3.0116,3.008,3.0067,3.0047,3.0032,3.0002,2.998,2.9952,2.9933,2.9911,2.9907,2.9906,2.9915,2.9926,2.9919,2.9883,2.9906,2.9906,2.9905,2.9905,2.9905,3.025,3.0244,3.0219,3.0201,3.0184,3.0166,3.0156,3.0134,3.0117,3.0091,3.0074,3.0054,3.0027,2.9988,2.997,2.9954,2.9944,2.9944,2.9943,2.9944,2.9946,2.993,2.9948,2.9948,2.9948,2.9948,2.9948,0,3.0277,3.026,3.0245,3.0218,3.0205,3.0187,3.0164,3.0153,3.0137,3.0114,3.0096,3.0073,3.0051,3.0021,2.9996,2.9989,2.9978,2.9983,2.9983,2.9979,2.9957,2.9959,2.9992,2.9992,2.9992,2.9992,2.9992,2.9992,3.029,3.0279,3.0263,3.0242,3.0224,3.0207,3.0195,3.0178,3.0159,3.0135,3.0118,3.0099,3.0072,3.0046,3.0025,3.0016,3.0008,3.0017,3.0005,2.9985,2.998,2.9977,2.9979,3.0016,3.0016,3.0028,3.0029,3.0029]}]]